This is the latest recevied weather packets stored in our database for station/object N1ORT. If no packets are shown the sender has not sent any weather packets the latest 10 day(s).
| Time | Temp. | Humidity | Pressure | Rain* | Wind** | Luminosity | Snow |
|---|---|---|---|---|---|---|---|
| 1787874902 | 23.33° C | 68% | 1014.1 hPa | 0 mm | - | 0 W/m² | - |
| 1787874596 | 23.89° C | 68% | 1014 hPa | 0 mm | - | 0 W/m² | - |
| 1787874290 | 23.89° C | 68% | 1014 hPa | 0 mm | - | 0 W/m² | - |
| 1787873985 | 23.89° C | 68% | 1014 hPa | 0 mm | - | 0 W/m² | - |
| 1787873684 | 23.89° C | 68% | 1014.1 hPa | 0 mm | - | 1 W/m² | - |
| 1787873379 | 23.89° C | 67% | 1014 hPa | 0 mm | - | 1 W/m² | - |
| 1787873079 | 23.89° C | 67% | 1014 hPa | 0 mm | - | 2 W/m² | - |
| 1787872773 | 23.89° C | 66% | 1014 hPa | 0 mm | - | 4 W/m² | - |
| 1787872469 | 24.44° C | 66% | 1014 hPa | 0 mm | - | 5 W/m² | - |
| 1787872163 | 24.44° C | 65% | 1013.7 hPa | 0 mm | - | 7 W/m² | - |
| 1787871863 | 24.44° C | 64% | 1013.8 hPa | 0 mm | - | 10 W/m² | - |
| 1787871553 | 24.44° C | 64% | 1013.7 hPa | 0 mm | - | 13 W/m² | - |
| 1787871248 | 25° C | 64% | 1014 hPa | 0 mm | - | 18 W/m² | - |
| 1787870943 | 25° C | 64% | 1013.8 hPa | 0 mm | - | 24 W/m² | - |
| 1787870642 | 25° C | 64% | 1014 hPa | 0 mm | - | 28 W/m² | - |
| 1787870338 | 25° C | 65% | 1013.7 hPa | 0 mm | - | 30 W/m² | - |
| 1787870033 | 25° C | 65% | 1013.8 hPa | 0 mm | - | 37 W/m² | - |
| 1787869732 | 25.56° C | 65% | 1013.8 hPa | 0 mm | - | 33 W/m² | - |
| 1787869426 | 25.56° C | 65% | 1013.9 hPa | 0 mm | - | 35 W/m² | - |
| 1787869121 | 26.11° C | 64% | 1014 hPa | 0 mm | - | 41 W/m² | - |
| 1787868820 | 26.11° C | 63% | 1013.8 hPa | 0 mm | - | 45 W/m² | - |
| 1787868519 | 26.11° C | 62% | 1013.9 hPa | 0 mm | - | 43 W/m² | - |
| 1787868218 | 26.11° C | 61% | 1014 hPa | 0 mm | - | 51 W/m² | - |
| 1787867913 | 26.11° C | 62% | 1014 hPa | 0 mm | - | 72 W/m² | - |
| 1787867608 | 26.11° C | 65% | 1014 hPa | 0 mm | - | 86 W/m² | - |
* Rain latest hour (hover to see other rain measurements)
** Current wind speed in m/s (hover to see current wind gust speed)